Regional Weather Roundup
Issued by NWS Mt. Holly, NJ

Home | Current Version | Previous Version | Text Only | Print | Product List | Glossary On
Versions: 1 2 3 4 5 6 7 8 9 10 11 12 13 14 15 16 17 18 19 20 21 22 23 24 25 26 27 28 29 30 31 32 33 34 35 36 37 38 39 40 41 42 43 44 45 46 47 48 49 50
000
ASUS41 KPHI 240711
RWRPHI

REGIONAL WEATHER ROUNDUP
NATIONAL WEATHER SERVICE MOUNT HOLLY NJ
200 AM EST TUE JAN 24 2017

NOTE:  "FAIR" INDICATES FEW OR NO CLOUDS BELOW 12,000 FEET WITH NO
SIGNIFICANT WEATHER AND/OR OBSTRUCTIONS TO VISIBILITY.

 * = STATION DOES NOT REPORT PRECIPITATION (E.G. RAIN, SNOW, ETC.)
        OR FOG.

NJZ015>026-240800-
SOUTHERN NEW JERSEY

CITY           SKY/WX    TMP DP  RH WIND       PRES   REMARKS
POMONA         LGT RAIN  40  38  93 N18G26    29.30R FOG     WCI  31
WILDWOOD*      LGT RAIN  40  39  97 N12       29.31F FOG     WCI  33
MILLVILLE      LGT RAIN  39  39 100 N13       29.34S FOG     WCI  31
WRIGHTSTOWN    CLOUDY    38  36  91 N15G23    29.32F WCI  30
MOUNT HOLLY    LGT SNOW  38  36  92 N14       29.37F FOG     WCI  30
TRENTON        LGT RAIN  38  36  92 NE13G21   29.38R FOG     WCI  30

$$
NJZ001>014-240800-
NORTHERN NEW JERSEY

CITY           SKY/WX    TMP DP  RH WIND       PRES   REMARKS
SUSSEX         LGT RAIN  33  31  92 NE14G28   29.43F FOG     WCI  23
ANDOVER*         N/A     32  31  96 VRB7G17   29.41F WCI  26
MORRISTOWN     LGT RAIN  36  36 100 N9G24     29.41S WCI  29
NEWARK         LGT RAIN  38  35  89 N21G31    29.37F WCI  28
TETERBORO      RAIN      38  35  89 N14G20    29.37F WCI  30
CALDWELL       LGT RAIN  37  34  89 NE16G28   29.40F WCI  28
SOMERVILLE     CLOUDY    39  33  79 NE9G25    29.38F WCI  33
ALLAIRE*       LGT RAIN  38  37  97 N17G28    29.33F FOG     WCI  28
TOMS RIVER*    LGT RAIN  39  38  96 NE24G32   29.32F FOG     WCI  28

$$
PAZ043-044-047-054-055-060>062-066>071-240800-
EASTERN PENNSYLVANIA

CITY           SKY/WX    TMP DP  RH WIND       PRES   REMARKS
PHILADELPHIA   LGT SNOW  38  36  92 N16       29.40F FOG     WCI  29
NORTH PHILA    LGT RAIN  39  37  92 N14       29.40S FOG     WCI  31
BLUE BELL*     CLOUDY    36  34  93 N7        29.41R WCI  30
DOYLESTOWN     LGT RAIN  38  37  97 NE9G18    29.40S WCI  31
QUAKERTOWN*    CLOUDY    36  34  93 N8        29.43R WCI  29
PERKASIE*      RAIN      36  36 100 N8        29.42R WCI  29
POTTSTOWN      LGT RAIN  35  34  96 N8        29.45R FOG     WCI  29
LANCASTER      CLOUDY    37  36  96 N8        29.45F WCI  31
COATESVILLE    MIX PCPN  36  36 100 N9        29.43S WCI  29
READING        LGT RAIN  37  36  96 N9        29.45F WCI  30
ALLENTOWN      LGT RAIN  37  32  82 NE12      29.44S WCI  29
MOUNT POCONO   MIX PCPN  32  29  88 NE17G24   29.41S FOG     WCI  21
HAZLETON       LGT SNOW  32  32 100 NW7       29.48S WCI  26
LEHIGHTON      RAIN      36  34  93 CALM      29.47S
WILKES BARRE   LGT RAIN  35  34  96 NE7       29.48F FOG     WCI  29

$$
DEZALL-MDZ008-012-015-019-020-240800-
DELAWARE AND EASTERN MARYLAND

CITY           SKY/WX    TMP DP  RH WIND       PRES   REMARKS
WILMINGTON     LGT RAIN  39  36  89 N15       29.41F WCI  31
DOVER          LGT RAIN  39  39 100 N18       29.34F WCI  29
GEORGETOWN     CLOUDY    41  38  89 N14G24    29.33S
ABERDEEN       CLOUDY    40  35  81 N12G17    29.44S WCI  33
PATUXENT       LGT RAIN  39  38  96 N18       29.40R FOG     WCI  30
OCEAN CITY     CLOUDY    43  41  93 N14G26    29.30R
WALLOPS ISLAND LGT RAIN  43  42  97 NW14      29.32R FOG
CAMBRIDGE      CLOUDY    37  36  93 N14       29.38R WCI  29
SALISBURY      LGT RAIN  41  40  96 N12       29.33R FOG

$$
PAZ001-021-NYZ056-072-MDZ011-DCZ001-240800-
OTHER NEARBY LOCATIONS

CITY           SKY/WX    TMP DP  RH WIND       PRES   REMARKS
HARRISBURG     LGTSLEET  36  35  96 NW12      29.48F FOG     WCI  28
STATE COLLEGE  LGT SNOW  32  32  99 N3        29.55S
WILLIAMSPORT   LGT SNOW  33  31  92 W9        29.55F FOG     WCI  25
BINGHAMTON     FRZ RAIN  31  30  96 NE10      29.52F FOG     WCI  22
NEW YORK CITY  LGT RAIN  37  35  92 NE17G30   29.39F WCI  27
BALTIMORE      DRIZZLE   37  37 100 NW9       29.44F WCI  30
WASHINGTON DC  LGT RAIN  38  37  97 NW16      29.47S WCI  29

$$



USA.gov is the U.S. government's official web portal to all federal, state and local government web resources and services.